York, NE

4:04 AM CDT on June 23, 2017 (GMT -0500)
York Municipal

Weather History for KJYR - January, 2014

Change the Weather History Date:

Monday, January 20, 2014

  Actual Average Record
Temperature  
Mean Temperature 26 °F -  
Max Temperature 48 °F 36 °F 64 °F (1964)
Min Temperature 5 °F 15 °F -16 °F (1962)
Degree Days  
Heating Degree Days 38    
Moisture  
Dew Point 13 °F    
Average Humidity 55    
Maximum Humidity 74    
Minimum Humidity 32    
Precipitation  
Precipitation 0.00 in - - ()
Sea Level Pressure  
Sea Level Pressure 30.11 in    
Wind  
Wind Speed 12 mph (NNW)    
Max Wind Speed 39 mph    
Max Gust Speed 50 mph    
Visibility 10 miles    
Events Rain    
Averages and records for this station are not official NWS values.
T = Trace of Precipitation, MM = Missing Value Source: NWS Daily Summary

Daily Weather History Graph

Daily Weather History Graph

Search for Another Location

Airport or City:

Trip Planner

Search our weather history database for the weather conditions in past years. The results will help you decide how hot, cold, wet, or windy it might be!

Date:

Astronomy

Jan. 20, 2014 Rise Set
Actual Time 7:50 AM CST 5:33 PM CST
Civil Twilight 7:20 AM CST 6:03 PM CST
Nautical Twilight 6:46 AM CST 6:36 PM CST
Astronomical Twilight 6:14 AM CST 7:09 PM CST
Moon 10:11 PM CST (1/20) 9:48 AM CST (1/20)
Length of Visible Light 10h 42m
Length of Day
9h 42m
Waning Gibbous, 82% of the Moon is Illuminated
Jan 20
Waning Gibbous
Jan 23
Last Quarter
Jan 30
New
Feb 6
First Quarter
Feb 14
Full

Hourly Weather History & Observations

Time (CST) Temp. Windchill Dew Point Humidity Pressure Visibility Wind Dir Wind Speed Gust Speed Precip Events Conditions
12:15 AM 32.0 °F - 14.0 °F 48% 29.86 in 10.0 mi Calm Calm - N/A   Clear
12:35 AM 33.8 °F - 14.0 °F 44% 29.86 in 10.0 mi Calm Calm - N/A   Clear
12:55 AM 30.2 °F 25.4 °F 14.0 °F 51% 29.85 in 10.0 mi North 4.6 mph - N/A   Clear
1:15 AM 28.4 °F 24.6 °F 14.0 °F 55% 29.86 in 10.0 mi NW 3.5 mph - N/A   Clear
1:35 AM 28.4 °F 19.7 °F 14.0 °F 55% 29.86 in 10.0 mi NW 9.2 mph - N/A   Clear
1:55 AM 28.4 °F 21.2 °F 14.0 °F 55% 29.86 in 10.0 mi NW 6.9 mph - N/A   Clear
2:15 AM 28.4 °F 23.3 °F 14.0 °F 55% 29.87 in 10.0 mi NW 4.6 mph - N/A   Clear
2:35 AM 26.6 °F 17.5 °F 14.0 °F 59% 29.88 in 10.0 mi NNW 9.2 mph - N/A   Clear
2:55 AM 28.4 °F 21.2 °F 15.8 °F 59% 29.89 in 10.0 mi NNW 6.9 mph - N/A   Clear
3:15 AM 26.6 °F 19.1 °F 15.8 °F 64% 29.90 in 10.0 mi NW 6.9 mph - N/A   Clear
3:35 AM 28.4 °F 21.2 °F 17.6 °F 64% 29.90 in 10.0 mi NNW 6.9 mph - N/A   Clear
3:55 AM 28.4 °F 19.7 °F 17.6 °F 64% 29.91 in 10.0 mi NNW 9.2 mph - N/A   Clear
4:15 AM 28.4 °F 20.4 °F 17.6 °F 64% 29.91 in 10.0 mi NNW 8.1 mph - N/A   Clear
4:35 AM 28.4 °F 20.4 °F 17.6 °F 64% 29.92 in 10.0 mi NW 8.1 mph - N/A   Clear
4:55 AM 26.6 °F 22.6 °F 17.6 °F 69% 29.92 in 10.0 mi NNW 3.5 mph - N/A   Clear
5:15 AM 24.8 °F 17.9 °F 15.8 °F 69% 29.93 in 10.0 mi NW 5.8 mph - N/A   Clear
5:35 AM 24.8 °F 17.9 °F 15.8 °F 69% 29.95 in 10.0 mi West 5.8 mph - N/A   Clear
5:55 AM 26.6 °F 18.2 °F 15.8 °F 64% 29.95 in 10.0 mi NNW 8.1 mph - N/A   Clear
6:15 AM 28.4 °F 19.7 °F 19.4 °F 69% 29.96 in 10.0 mi NNW 9.2 mph - N/A   Clear
6:35 AM 28.4 °F 18.5 °F 19.4 °F 69% 29.97 in 10.0 mi NW 11.5 mph - N/A   Clear
6:55 AM 28.4 °F 20.4 °F 17.6 °F 64% 29.98 in 10.0 mi WNW 8.1 mph - N/A   Clear
7:15 AM 24.8 °F 16.1 °F 17.6 °F 74% 29.98 in 10.0 mi WNW 8.1 mph - N/A   Clear
7:35 AM 24.8 °F 15.3 °F 17.6 °F 74% 29.98 in 10.0 mi WNW 9.2 mph - N/A   Clear
7:55 AM 24.8 °F 14.6 °F 17.6 °F 74% 29.99 in 10.0 mi WNW 10.4 mph - N/A   Clear
8:15 AM 26.6 °F 16.2 °F 17.6 °F 69% 30.01 in 10.0 mi WNW 11.5 mph - N/A   Clear
8:35 AM 30.2 °F 21.3 °F 19.4 °F 64% 30.02 in 10.0 mi WNW 10.4 mph - N/A   Clear
8:55 AM 32.0 °F 23.0 °F 21.2 °F 64% 30.03 in 10.0 mi WNW 11.5 mph - N/A   Clear
9:15 AM 32.0 °F 22.1 °F 23.0 °F 69% 30.04 in 10.0 mi WNW 13.8 mph - N/A   Clear
9:35 AM 35.6 °F 26.2 °F 23.0 °F 60% 30.05 in 10.0 mi NW 15.0 mph - N/A   Clear
9:55 AM 37.4 °F 27.8 °F 23.0 °F 56% 30.06 in 10.0 mi NW 17.3 mph - N/A   Clear
10:15 AM 39.2 °F 29.6 °F 24.8 °F 56% 30.07 in 10.0 mi NW 19.6 mph 24.2 mph N/A   Clear
10:35 AM 42.8 °F 33.1 °F 23.0 °F 46% 30.07 in 10.0 mi NW 25.3 mph 29.9 mph N/A   Clear
10:55 AM 46.4 °F 37.7 °F 23.0 °F 40% 30.08 in 10.0 mi NNW 26.5 mph 32.2 mph N/A   Clear
11:15 AM 44.6 °F 35.7 °F 19.4 °F 37% 30.09 in 10.0 mi NNW 24.2 mph 38.0 mph N/A   Clear
11:35 AM 44.6 °F 35.3 °F 19.4 °F 37% 30.09 in 10.0 mi NW 26.5 mph 34.5 mph N/A   Clear
11:55 AM 46.4 °F 37.2 °F 19.4 °F 34% 30.08 in 10.0 mi NW 29.9 mph 40.3 mph N/A   Clear
12:15 PM 46.4 °F 37.0 °F 19.4 °F 34% 30.06 in 10.0 mi NNW 31.1 mph 40.3 mph N/A   Clear
12:35 PM 48.2 °F - 19.4 °F 32% 30.06 in 10.0 mi NNW 28.8 mph 39.1 mph N/A   Scattered Clouds
12:55 PM 48.2 °F - 19.4 °F 32% 30.06 in 10.0 mi NW 39.1 mph 47.2 mph N/A   Scattered Clouds
1:15 PM 46.4 °F 36.4 °F 19.4 °F 34% 30.06 in 10.0 mi NW 35.7 mph 43.7 mph N/A   Overcast
1:35 PM 44.6 °F 34.4 °F 19.4 °F 37% 30.07 in 10.0 mi NW 32.2 mph 42.6 mph N/A   Overcast
1:55 PM 44.6 °F 34.4 °F 19.4 °F 37% 30.07 in 10.0 mi NW 32.2 mph 43.7 mph N/A   Overcast
2:15 PM 44.6 °F 33.9 °F 17.6 °F 34% 30.07 in 10.0 mi NW 35.7 mph 49.5 mph N/A   Overcast
2:35 PM 44.6 °F 34.9 °F 19.4 °F 37% 30.07 in 10.0 mi NW 28.8 mph 40.3 mph N/A   Overcast
2:55 PM 44.6 °F 34.1 °F 17.6 °F 34% 30.07 in 10.0 mi NW 34.5 mph 42.6 mph N/A   Overcast
3:15 PM 44.6 °F 34.9 °F 21.2 °F 39% 30.09 in 10.0 mi NNW 28.8 mph 41.4 mph N/A Rain Light Rain
3:35 PM 39.2 °F 29.3 °F 26.6 °F 61% 30.11 in 10.0 mi NNW 20.7 mph 31.1 mph N/A   Mostly Cloudy
3:55 PM 39.2 °F 26.8 °F 21.2 °F 49% 30.12 in 10.0 mi NW 33.4 mph 47.2 mph N/A   Mostly Cloudy
4:15 PM 39.2 °F 27.0 °F 17.6 °F 42% 30.14 in 10.0 mi NW 32.2 mph 47.2 mph N/A   Mostly Cloudy
4:35 PM 37.4 °F 25.0 °F 12.2 °F 36% 30.16 in 10.0 mi NNW 29.9 mph 41.4 mph N/A   Mostly Cloudy
4:55 PM 33.8 °F 22.2 °F 12.2 °F 41% 30.18 in 10.0 mi NNW 20.7 mph 40.3 mph N/A   Partly Cloudy
5:15 PM 32.0 °F 18.6 °F 10.4 °F 41% 30.20 in 10.0 mi NNW 25.3 mph 42.6 mph N/A   Clear
5:35 PM 28.4 °F 14.7 °F 12.2 °F 51% 30.21 in 10.0 mi NNW 21.9 mph 33.4 mph N/A   Clear
5:55 PM 26.6 °F 12.0 °F 10.4 °F 51% 30.22 in 10.0 mi NNW 23.0 mph 32.2 mph N/A   Clear
6:15 PM 24.8 °F 11.5 °F 10.4 °F 54% 30.26 in 10.0 mi NNW 17.3 mph 32.2 mph N/A   Partly Cloudy
6:35 PM 23.0 °F 8.3 °F 6.8 °F 50% 30.29 in 10.0 mi NNW 19.6 mph 34.5 mph N/A   Scattered Clouds
6:55 PM 19.4 °F 4.1 °F 8.6 °F 63% 30.32 in 10.0 mi NNW 18.4 mph 26.5 mph N/A   Mostly Cloudy
7:15 PM 17.6 °F 0.1 °F 5.0 °F 58% 30.33 in 10.0 mi North 23.0 mph 31.1 mph N/A   Scattered Clouds
7:35 PM 15.8 °F -1.5 °F 1.4 °F 53% 30.34 in 10.0 mi North 20.7 mph 32.2 mph N/A   Partly Cloudy
7:55 PM 14.0 °F -2.0 °F 1.4 °F 57% 30.37 in 10.0 mi North 16.1 mph 29.9 mph N/A   Clear
8:15 PM 14.0 °F -1.4 °F -0.4 °F 53% 30.38 in 10.0 mi NNW 15.0 mph 23.0 mph N/A   Clear
8:35 PM 12.2 °F -1.8 °F -0.4 °F 57% 30.39 in 10.0 mi NNW 11.5 mph 21.9 mph N/A   Scattered Clouds
8:55 PM 10.4 °F -6.0 °F -0.4 °F 62% 30.39 in 10.0 mi NNW 15.0 mph 24.2 mph N/A   Mostly Cloudy
9:15 PM 10.4 °F -6.0 °F -0.4 °F 62% 30.41 in 10.0 mi North 15.0 mph 19.6 mph N/A   Overcast
9:35 PM 8.6 °F -11.4 °F -0.4 °F 67% 30.41 in 10.0 mi North 21.9 mph 33.4 mph N/A   Mostly Cloudy
9:55 PM 8.6 °F -11.0 °F -2.2 °F 62% 30.42 in 10.0 mi North 20.7 mph 34.5 mph N/A   Partly Cloudy
10:15 PM 8.6 °F -8.3 °F -2.2 °F 62% 30.42 in 10.0 mi North 15.0 mph 28.8 mph N/A   Clear
10:35 PM 6.8 °F -11.3 °F -2.2 °F 67% 30.44 in 10.0 mi North 16.1 mph 21.9 mph N/A   Scattered Clouds
10:55 PM 6.8 °F -13.4 °F -2.2 °F 67% 30.45 in 10.0 mi North 20.7 mph 27.6 mph N/A   Scattered Clouds
11:15 PM 6.8 °F -9.3 °F -4.0 °F 61% 30.45 in 10.0 mi North 12.7 mph - N/A   Partly Cloudy
11:35 PM 5.0 °F -10.8 °F -4.0 °F 66% 30.47 in 10.0 mi North 11.5 mph 25.3 mph N/A   Clear
11:55 PM 5.0 °F -11.6 °F -4.0 °F 66% 30.48 in 10.0 mi North 12.7 mph 23.0 mph N/A   Clear